Location: Unspecified
(0.0000°N, 0.0000°E)
Time: 09:10:01
(UTC+00:00)

Courier 1B Rocket - Pass Details

Date: 25 May 2026
Orbit: 920 x 1201 km, 28.2° (Epoch: 9 June)

Event Time Altitude Azimuth Distance (km) Brightness Sun altitude
Rises 14:34:18 0° 257° (WSW) 3,719 8.5 46.2°
Reaches altitude 10° 14:38:19 10° 234° (SW) 2,831 7.8 45.4°
Maximum altitude 14:42:01 15° 201° (SSW) 2,541 7.3 44.6°
Drops below altitude 10° 14:45:50 10° 169° (SSE) 2,947 7.3 43.7°
Sets 14:50:12 0° 146° (SE) 3,968 7.8 42.8°
